Location: Pinon Hills
(34.4429°N, 117.6403°W)
Time: 20:45:03
(UTC-07:00)

Uosat F - Visible Passes

Search period start: 04 September 2015 00:00
Search period end: 14 September 2015 00:00
Orbit: 750 x 762 km, 98.7° (Epoch: 04 September)

Date Brightness Start Highest point End Pass type
(mag) Time Alt. Az. Time Alt. Az. Time Alt. Az.
04 Sep 11.4 05:58:10 10° NNE 06:03:12 75° ESE 06:08:13 10° S visible
05 Sep 13.2 05:19:26 10° NE 05:23:42 29° E 05:28:03 10° SSE visible
06 Sep 14.2 04:43:00 10° E 04:43:54 11° E 04:45:13 10° ESE visible
07 Sep 12.3 05:39:05 10° NNE 05:43:54 46° E 05:48:43 10° S visible
08 Sep 13.8 05:00:58 10° NE 05:04:16 18° E 05:07:44 10° SE visible
09 Sep 11.4 05:58:59 10° NNE 06:04:01 76° ESE 06:09:03 10° S visible
10 Sep 13.2 05:20:14 10° NE 05:24:32 29° E 05:28:53 10° SSE visible
11 Sep 14.3 04:43:45 10° ENE 04:44:44 11° E 04:46:05 10° ESE visible
12 Sep 12.3 05:39:54 10° NNE 05:44:43 46° E 05:49:33 10° S visible
13 Sep 13.9 05:01:47 10° NE 05:05:05 18° E 05:08:35 10° SE visible
